Home > Weather > Glendale > Past weeks

Flag for USA Past Weather in Glendale, California, USA — Yesterday and Last 2 Weeks

Now
77 °F

Sunny.


Feels Like: 79 °F
Forecast: 64 / 83 °F
Wind: 9 mph from South

Location: Bob Hope Airport

Current Time: Jun 30, 2016 at 7:45:41 PM

Latest Report: Jun 30, 2016 at 6:53 PM


Visibility: 10 mi

Pressure: 29.76 "Hg

Humidity: 58%

Dew Point: 61 °F

Location of GlendaleLocation

Past Weather in Glendale — Graph

°F

Glendale Temperature Yesterday

Maximum temperature yesterday: 91 °F (at 12:53 PM)
Minimum temperature yesterday: 67 °F (at 5:53 AM)
Average temperature yesterday: 78 °F

High & Low Weather Summary for the Past Weeks

 TemperatureHumidityPressure
High111 °F (Jun 20, 4:53 PM)90% (Jun 23, 2:53 AM)30.01 "Hg (Jun 23, 2:53 AM)
Low56 °F (Jun 16, 5:53 AM)2% (Jun 19, 12:53 PM)29.76 "Hg (Jun 30, 4:53 PM)
Average78 °F51%29.88 "Hg
* Reported Jun 15 5:53 PM — Jun 30 5:53 PM, Glendale, Weather by CustomWeather, © 2016

Note: Actual official high and low records may vary slightly from our data, if they occured in-between our weather recording intervals... More about our weather records

Advertising

Glendale Weather History for the Previous 24 Hours

Scroll right to see more
 ConditionsComfort  
Time TempWeatherWind HumidityBarometerVisibility
5:53 PM
Thu, Jun 30
82 °FSunny.10 mph48%29.76 "Hg10 mi
4:53 PM85 °FSunny.13 mph40%29.76 "Hg10 mi
3:53 PM85 °FSunny.10 mph45%29.78 "Hg10 mi
2:53 PM86 °FSunny.13 mph46%29.80 "Hg10 mi
1:53 PM85 °FSunny.12 mph48%29.81 "Hg10 mi
12:53 PM84 °FSunny.10 mph49%29.82 "Hg10 mi
11:53 AM82 °FSunny.10 mph53%29.83 "Hg10 mi
10:53 AM81 °FSunny.9 mph53%29.84 "Hg10 mi
9:53 AM76 °FSunny.3 mph62%29.84 "Hg9 mi
8:53 AM71 °FSunny.5 mph73%29.85 "Hg7 mi
7:53 AM67 °FHaze.No wind85%29.85 "Hg5 mi
6:53 AM66 °FFog.5 mph87%29.84 "Hg4 mi
5:53 AM65 °FPassing clouds.5 mph87%29.83 "Hg7 mi
4:53 AM66 °FClear.6 mph84%29.81 "Hg8 mi
3:53 AM67 °FClear.7 mph81%29.81 "Hg9 mi
2:53 AM68 °FClear.5 mph78%29.81 "Hg10 mi
1:53 AM69 °FClear.5 mph76%29.82 "Hg10 mi
12:53 AM70 °FClear.5 mph73%29.83 "Hg10 mi
11:53 PM
Wed, Jun 29
72 °FClear.8 mph66%29.84 "Hg10 mi
10:53 PM74 °FClear.6 mph56%29.83 "Hg10 mi
9:53 PM75 °FClear.6 mph58%29.82 "Hg10 mi
8:53 PM76 °FSunny.8 mph58%29.80 "Hg10 mi
7:53 PM79 °FSunny.10 mph54%29.79 "Hg10 mi
Weather by CustomWeather, © 2016

See weather overviewHow to use our weather pages